KF0AIT Weather Reports


time (UTC)temp
C
wind
direction
speed
KPH
gust
KPH
rain 1hr
cm
rain 24hr
cm
rain mn
cm
humidity
%
barometer
mb
20260902235403 29 0 0.0 0.0 0.00 0.00 0.00 57 1003.9
20260902234524 29 146 0.0 1.6 0.00 0.00 0.00 55 1003.9
20260902233603 29 0 0.0 0.0 0.00 0.00 0.00 54 1003.9
20260902232703 29 0 0.0 0.0 0.00 0.00 0.00 54 1003.9
20260902231803 29 0 0.0 0.0 0.00 0.00 0.00 54 1003.9
20260902230903 30 157 0.0 3.2 0.00 0.00 0.00 54 1003.9
20260902230003 30 157 0.0 1.6 0.00 0.00 0.00 54 1003.9
20260902225403 30 0 0.0 0.0 0.00 0.00 0.00 54 1003.9
20260902224524 30 0 0.0 0.0 0.00 0.00 0.00 54 1003.9
20260902223603 30 0 0.0 0.0 0.00 0.00 0.00 54 1003.9
20260902222703 30 0 0.0 0.0 0.00 0.00 0.00 54 1003.9
20260902221803 30 0 0.0 0.0 0.00 0.00 0.00 55 1003.9
20260902220903 30 0 0.0 0.0 0.00 0.00 0.00 54 1003.9
20260902220003 30 0 0.0 0.0 0.00 0.00 0.00 55 1003.9
20260902215403 30 0 0.0 0.0 0.00 0.00 0.00 53 1003.9
20260902214503 30 0 0.0 0.0 0.00 0.00 0.00 57 1003.9
20260902213603 30 0 0.0 0.0 0.00 0.00 0.00 57 1003.9
20260902212724 30 0 0.0 0.0 0.00 0.00 0.00 57 1003.9
20260902211803 30 0 0.0 0.0 0.00 0.00 0.00 56 1003.9
20260902210903 30 0 0.0 0.0 0.00 0.00 0.00 57 1005.0
20260902210024 29 0 0.0 0.0 0.00 0.00 0.00 57 1005.0
20260902205403 29 157 0.0 3.2 0.00 0.00 0.00 57 1005.0
20260902204503 29 157 3.2 3.2 0.00 0.00 0.00 57 1005.0
20260902203603 29 0 0.0 0.0 0.00 0.00 0.00 59 1005.0
20260902202703 29 0 0.0 0.0 0.00 0.00 0.00 58 1005.0
20260902201804 29 67 0.0 1.6 0.00 0.00 0.00 60 1005.0
20260902200903 28 0 0.0 0.0 0.00 0.00 0.00 60 1005.0
20260902200003 28 78 0.0 3.2 0.00 0.00 0.00 61 1005.0
20260902195403 28 85 0.0 3.2 0.00 0.00 0.00 62 1005.0
20260902194524 28 157 3.2 3.2 0.00 0.00 0.00 62 1005.0
20260902193603 28 0 0.0 0.0 0.00 0.00 0.00 64 1005.0
20260902192703 28 157 0.0 1.6 0.00 0.00 0.00 64 1006.0
20260902191803 28 114 0.0 3.2 0.00 0.00 0.00 64 1006.0
20260902190903 28 139 0.0 1.6 0.00 0.00 0.00 65 1006.0
20260902190003 28 139 0.0 1.6 0.00 0.00 0.00 65 1006.0
20260902185403 27 157 0.0 4.8 0.00 0.00 0.00 66 1006.0
20260902184524 27 157 0.0 4.8 0.00 0.00 0.00 65 1006.0
20260902183603 27 137 0.0 6.4 0.00 0.00 0.00 65 1007.1
20260902182703 27 135 0.0 3.2 0.00 0.00 0.00 65 1007.1
20260902181803 26 140 0.0 6.4 0.00 0.00 0.00 66 1007.1
20260902180903 26 82 1.6 4.8 0.00 0.00 0.00 66 1007.1
20260902180005 26 0 0.0 0.0 0.00 0.00 0.00 66 1007.1
20260902175406 26 0 0.0 0.0 0.00 0.00 0.00 67 1008.1
20260902174524 25 45 0.0 1.6 0.00 0.00 0.00 69 1008.1
20260902173603 25 45 0.0 1.6 0.00 0.00 0.00 69 1008.1
20260902172703 25 0 0.0 0.0 0.00 0.00 0.00 69 1008.1
20260902171803 25 67 0.0 1.6 0.00 0.00 0.00 70 1008.1
20260902170903 24 67 1.6 1.6 0.00 0.00 0.00 71 1008.1
20260902170004 24 0 0.0 0.0 0.00 0.00 0.00 70 1008.1
20260902165403 24 0 0.0 0.0 0.00 0.00 0.00 72 1008.1
20260902164524 23 0 0.0 0.0 0.00 0.00 0.00 72 1008.1
20260902163603 23 0 0.0 0.0 0.00 0.00 0.00 72 1008.1
20260902162704 23 0 0.0 0.0 0.00 0.00 0.00 75 1008.1
20260902161803 22 0 0.0 0.0 0.00 0.00 0.00 77 1008.1
20260902160924 22 202 0.0 1.6 0.00 0.00 0.00 77 1008.1
20260902160003 22 202 0.0 1.6 0.00 0.00 0.00 79 1008.1
20260902155403 21 202 0.0 1.6 0.00 0.00 0.00 79 1008.1
20260902154503 21 0 0.0 0.0 0.00 0.00 0.00 80 1008.1
20260902153624 21 0 0.0 0.0 0.00 0.00 0.00 81 1008.1
20260902152703 20 202 0.0 1.6 0.00 0.00 0.00 81 1009.2
20260902151803 20 202 0.0 3.2 0.00 0.00 0.00 81 1009.2
20260902150903 20 202 3.2 3.2 0.00 0.00 0.00 81 1008.1
20260902150025 20 0 0.0 0.0 0.00 0.00 0.00 81 1008.1
20260902145424 20 0 0.0 0.0 0.00 0.00 0.00 82 1009.2
20260902144503 19 202 0.0 1.6 0.00 0.00 0.00 82 1009.2
20260902143603 19 0 0.0 0.0 0.00 0.00 0.00 82 1008.1
20260902142705 18 0 0.0 0.0 0.00 0.00 0.00 82 1009.2
20260902141803 18 157 0.0 3.2 0.00 0.00 0.00 82 1009.2
20260902140924 18 157 0.0 3.2 0.00 0.00 0.00 81 1010.2
20260902140004 19 157 0.0 1.6 0.00 0.00 0.00 80 1010.2
20260902135403 19 0 0.0 0.0 0.00 0.00 0.00 79 1008.1
20260902134503 19 0 0.0 0.0 0.00 0.00 0.00 78 1008.1
20260902133603 19 0 0.0 0.0 0.00 0.00 0.00 77 1009.2
20260902132703 19 90 0.0 1.6 0.00 0.00 0.00 78 1009.2
20260902131824 18 45 0.0 3.2 0.00 0.00 0.00 78 1009.2
20260902130903 18 0 0.0 0.0 0.00 0.00 0.00 78 1009.2
20260902130003 18 0 0.0 0.0 0.00 0.00 0.00 78 1009.2
20260902125403 18 0 0.0 0.0 0.00 0.00 0.00 78 1009.2
20260902124504 18 0 0.0 0.0 0.00 0.00 0.00 78 1009.2
20260902123624 18 0 0.0 0.0 0.00 0.00 0.00 78 1008.1
20260902122703 18 0 0.0 0.0 0.00 0.00 0.00 77 1008.1
20260902121803 18 0 0.0 0.0 0.00 0.00 0.00 77 1008.1
20260902120903 18 0 0.0 0.0 0.00 0.00 0.00 77 1008.1
20260902120003 18 45 0.0 1.6 0.00 0.00 0.00 77 1008.1
20260902115403 18 0 0.0 0.0 0.00 0.00 0.00 77 1008.1
20260902114503 18 0 0.0 0.0 0.00 0.00 0.00 77 1008.1
20260902113603 18 0 0.0 0.0 0.00 0.00 0.00 77 1008.1
20260902112703 18 45 0.0 1.6 0.00 0.00 0.00 76 1007.1
20260902111824 18 0 0.0 0.0 0.00 0.00 0.00 76 1007.1
20260902110903 18 0 0.0 0.0 0.00 0.00 0.00 76 1008.1
20260902110024 18 0 0.0 0.0 0.00 0.00 0.00 76 1008.1
20260902105403 18 0 0.0 0.0 0.00 0.00 0.00 76 1007.1
20260902104503 18 0 0.0 0.0 0.00 0.00 0.00 76 1007.1
20260902103624 18 0 0.0 0.0 0.00 0.00 0.00 75 1007.1
20260902102703 18 0 0.0 0.0 0.00 0.00 0.00 75 1008.1
20260902101803 18 0 0.0 0.0 0.00 0.00 0.00 75 1008.1
20260902100903 18 0 0.0 0.0 0.00 0.00 0.00 75 1008.1
20260902100024 18 0 0.0 0.0 0.00 0.00 0.00 74 1008.1
20260902095424 18 0 0.0 0.0 0.00 0.00 0.00 74 1008.1
20260902094523 18 0 0.0 0.0 0.00 0.00 0.00 74 1008.1
20260902093603 18 0 0.0 0.0 0.00 0.00 0.00 74 1008.1
20260902092703 18 0 0.0 0.0 0.00 0.00 0.00 74 1008.1
20260902091803 18 0 0.0 0.0 0.00 0.00 0.00 74 1008.1
20260902090903 19 0 0.0 0.0 0.00 0.00 0.00 74 1008.1
20260902090004 19 0 0.0 0.0 0.00 0.00 0.00 75 1008.1
20260902085403 19 0 0.0 0.0 0.00 0.00 0.00 75 1008.1
20260902084524 19 0 0.0 0.0 0.00 0.00 0.00 75 1008.1
20260902083603 19 0 0.0 0.0 0.00 0.00 0.00 75 1008.1
20260902082703 19 0 0.0 0.0 0.00 0.00 0.00 75 1008.1
20260902081803 19 0 0.0 0.0 0.00 0.00 0.00 75 1008.1
20260902080903 19 0 0.0 0.0 0.00 0.00 0.00 74 1008.1
20260902080003 19 45 0.0 1.6 0.00 0.00 0.00 73 1008.1
20260902075403 19 45 0.0 1.6 0.00 0.00 0.00 73 1008.1
20260902074524 19 0 0.0 0.0 0.00 0.00 0.00 73 1008.1
20260902073603 19 0 0.0 0.0 0.00 0.00 0.00 73 1008.1
20260902072724 19 0 0.0 0.0 0.00 0.00 0.00 74 1008.1
20260902071803 19 0 0.0 0.0 0.00 0.00 0.00 74 1008.1
20260902070903 19 0 0.0 0.0 0.00 0.00 0.00 74 1008.1
20260902070003 19 0 0.0 0.0 0.00 0.00 0.00 74 1008.1
20260902065403 19 0 0.0 0.0 0.00 0.00 0.00 74 1008.1
20260902064503 19 0 0.0 0.0 0.00 0.00 0.00 74 1008.1
20260902063603 19 67 0.0 1.6 0.00 0.00 0.00 74 1007.1
20260902062703 19 67 0.0 1.6 0.00 0.00 0.00 74 1007.1
20260902061803 19 0 0.0 0.0 0.00 0.00 0.00 74 1007.1
20260902060903 19 0 0.0 0.0 0.00 0.00 0.00 74 1008.1
20260902060003 20 0 0.0 0.0 0.00 0.00 0.00 74 1008.1
20260902055424 20 0 0.0 0.0 0.00 0.00 0.00 74 1008.1
20260902054503 20 0 0.0 0.0 0.00 0.00 0.00 74 1008.1
20260902053603 20 0 0.0 0.0 0.00 0.00 0.00 75 1008.1
20260902052703 20 67 0.0 1.6 0.00 0.00 0.00 75 1008.1
20260902051824 20 0 0.0 0.0 0.00 0.00 0.00 75 1008.1
20260902050903 20 0 0.0 0.0 0.00 0.00 0.00 76 1007.1
20260902050005 20 0 0.0 0.0 0.00 0.00 0.00 76 1007.1
20260902045403 20 0 0.0 0.0 0.00 0.00 0.00 76 1008.1
20260902044503 20 67 0.0 1.6 0.00 0.00 0.00 76 1008.1
20260902043603 20 0 0.0 0.0 0.00 0.00 0.00 76 1008.1
20260902042703 20 0 0.0 0.0 0.00 0.00 0.00 76 1008.1
20260902041824 20 0 0.0 0.0 0.00 0.00 0.00 76 1008.1
20260902040924 20 0 0.0 0.0 0.00 0.00 0.00 76 1008.1
20260902040003 20 0 0.0 0.0 0.00 0.00 0.00 76 1008.1
20260902035403 20 0 0.0 0.0 0.00 0.00 0.00 76 1008.1
20260902034503 20 0 0.0 0.0 0.00 0.00 0.00 76 1008.1
20260902033603 20 67 0.0 1.6 0.00 0.00 0.00 76 1008.1
20260902032703 20 0 0.0 0.0 0.00 0.00 0.00 76 1008.1
20260902031803 20 0 0.0 0.0 0.00 0.00 0.00 76 1008.1
20260902030903 20 0 0.0 0.0 0.00 0.00 0.00 76 1008.1
20260902030003 20 90 0.0 1.6 0.00 0.00 0.00 76 1008.1
20260902025403 20 90 0.0 1.6 0.00 0.00 0.00 76 1008.1
20260902024524 20 0 0.0 0.0 0.00 0.00 0.00 77 1008.1
20260902023603 20 0 0.0 0.0 0.00 0.00 0.00 77 1008.1
20260902022703 20 0 0.0 0.0 0.00 0.00 0.00 76 1009.2
20260902021803 20 0 0.0 0.0 0.00 0.00 0.00 75 1009.2
20260902020903 20 0 0.0 0.0 0.00 0.00 0.00 75 1009.2
20260902020003 20 0 0.0 0.0 0.00 0.00 0.00 76 1009.2
20260902015403 20 22 3.2 3.2 0.00 0.00 0.00 76 1008.1
20260902014503 20 22 3.2 3.2 0.00 0.00 0.00 76 1008.1
20260902013603 20 67 0.0 1.6 0.00 0.00 0.00 74 1008.1
20260902012703 20 0 0.0 0.0 0.00 0.00 0.00 73 1008.1
20260902011803 20 0 0.0 0.0 0.00 0.00 0.00 72 1008.1
20260902010903 21 0 0.0 0.0 0.00 0.00 0.00 71 1008.1
20260902010003 21 67 0.0 1.6 0.00 0.00 0.00 71 1008.1
20260902005424 21 67 0.0 1.6 0.00 0.00 0.00 71 1008.1
20260902004503 21 0 0.0 0.0 0.00 0.00 0.00 71 1008.1
20260902003603 21 0 0.0 0.0 0.00 0.00 0.00 71 1009.2
20260902002703 22 0 0.0 0.0 0.00 0.00 0.00 69 1009.2
20260902001824 22 0 0.0 0.0 0.00 0.00 0.00 69 1009.2
20260902000903 22 0 0.0 0.0 0.00 0.00 0.00 68 1008.1
20260902000004 22 67 0.0 3.2 0.00 0.00 0.00 68 1008.1
20260901235424 22 67 1.6 3.2 0.00 0.00 0.00 68 1009.2